Vertical_Velocity
-1 4 -3 -3 -8 -3 -3 -3 4 -3 -1 -0 -0 -2 1 3 3 -1 -6 6 -4 -4 1 -3 -4 -1 -0 -4 -3 -3 2 2 2 3 -0 -2 2 1 -4 -1 1 4 1
-2 -2 1 0 -0 -3 -2 -3 -7 -1 -3 -2 -3 -2 -2 1 3 -6 5 -0 2 1 -0 -0 5 -3 1 -0 0 -2 -3 -1 1 0 1 -0 -2 1 3 -2 -1 2 6
5 -0 -3 -2 -6 -3 -3 1 -4 -1 -1 -3 -8 -7 -2 5 -2 1 -3 -1 -3 -1 2 5 -1 5 8 -3 1 5 3 -3 -4 -0 1 1 -1 -2 -0 2 -2 -1 -0
1 0 4 1 -4 -1 -0 0 -1 -2 -3 -1 -0 3 2 4 -3 -3 -0 -2 4 -14 -1 0 -2 6 4 3 1 8 -1 -0 3 1 -2 2 3 -2 -1 3 -1 -3 -1
-2 -1 5 -2 -3 -2 -0 -1 2 1 3 -1 0 -4 -2 3 -1 -3 -6 -4 0 -4 -5 -11 -5 -7 -10 4 6 3 -12 2 14 -10 -2 4 0 2 -1 -4 5 -1 -4
-4 -10 -2 7 5 -1 -1 -4 -2 0 -1 -4 -2 -3 3 3 0 -6 0 -3 -1 -0 -2 -9 -8 -6 -6 -10 -9 2 3 -5 -7 4 7 0 -6 -2 0 -2 -2 2 -0
-0 1 -3 -7 -6 -4 -5 -5 -3 -2 2 -3 -1 -3 -4 4 7 -3 0 -5 -3 -5 0 -9 -5 -10 -5 -0 -6 -6 -6 -14 3 -5 -4 11 0 -2 1 -1 -1 1 -1
-5 -6 1 1 -4 -3 -1 -2 -4 -2 1 -2 -4 -1 -2 10 4 5 5 3 0 1 -5 -4 -9 -6 -6 -9 3 -9 -9 -4 4 -9 -6 -5 3 7 -1 -1 -4 -3 2
3 0 -0 0 1 -1 -4 -3 -4 -2 -2 6 -2 -2 -3 -2 -8 2 6 2 13 12 4 -7 -11 -14 -14 -7 5 -13 -5 -5 -13 1 -3 -3 -6 -2 6 4 -0 -4 -3
-1 -1 -2 -3 -6 -3 0 -2 -1 -2 -5 -5 1 -2 -5 -13 -17 -13 -1 2 1 -2 -2 4 -0 -1 -4 -7 -5 -7 -8 -6 -3 3 -3 -8 -3 -1 3 3 4 2 -5
-4 -2 -4 -1 -1 -3 -3 -3 -2 -0 4 -3 -4 -5 -5 -5 0 -12 -12 5 2 4 -4 -10 1 -0 1 -2 -2 -2 -7 -4 0 1 2 -6 -2 -3 -0 5 0 1 1
-0 -0 -2 -2 -1 -1 1 -1 1 -2 -3 -9 -8 -4 -6 -3 -4 -9 -15 -1 -9 9 -2 -3 1 -2 -4 -1 -1 -1 -2 -4 -4 -3 -1 -4 -2 0 0 0 3 3 -1
-0 0 -1 0 1 -2 -0 -5 -4 -5 -6 -2 -2 -4 -5 -4 -3 -5 -10 -6 -6 5 3 -1 -0 -1 -3 -3 -5 -3 -0 -1 -4 -5 -4 -4 -3 -1 -3 -3 3 2 2
-4 -3 -3 -2 0 0 2 -2 -0 -1 -5 -9 -9 -13 -6 -11 -6 -0 -2 -8 -1 1 1 1 -1 -1 -3 -6 -1 -2 -6 -0 -3 -6 -3 -3 -1 -6 -3 -2 1 3 -1
-2 0 -1 -2 -8 2 1 -2 -3 -5 -2 -6 -9 -12 -15 -7 0 -2 -1 -3 -9 -5 11 11 -2 3 -6 -3 1 -3 -5 -3 -0 -1 -3 -5 -3 -5 -4 -1 -2 4 2
-1 -1 1 1 -2 -9 -9 -7 -9 -6 -9 -12 -14 -19 -2 -4 2 1 -1 0 -0 -7 -7 -3 4 -3 -0 -1 3 -0 -1 -3 1 -1 -3 0 -2 -2 -2 -3 -3 -1 1
-1 -2 -3 -2 -2 -2 -0 -0 -4 -3 -6 -7 -9 -10 -1 -2 -4 -4 -2 -1 0 -3 -8 13 -4 -3 1 -5 -1 -5 -0 -3 -1 2 -5 -1 -1 -0 -1 -2 -1 -0 -1
-1 -3 -2 1 -1 -3 -1 -0 -8 -2 -0 -10 -3 2 -4 -3 -1 -0 -2 -1 -1 -0 -9 -1 4 -0 -1 -2 -4 -3 -1 -1 -3 0 -3 1 -1 -1 -2 -2 -1 -2 -0
-3 -1 -0 -1 -1 -5 -1 -6 -3 2 -5 -14 -10 -3 -4 -3 1 -0 -2 -0 -1 0 -1 -6 3 -5 1 -4 -2 -1 -2 -1 -1 0 -0 -4 1 -2 -2 -1 -1 -2 -1
-4 -2 -4 -4 -0 -6 5 -10 3 -10 -10 -8 -6 -2 -3 -3 -1 -0 -2 -2 -2 -1 -0 -1 -0 -4 -2 1 -3 -3 3 -6 0 -4 0 -1 -1 -6 -3 -4 -6 1 -3
-1 4 0 -2 0 -1 9 2 -1 -5 -6 -4 -1 -1 -1 -3 3 -2 -2 -1 -4 -3 -2 -1 -1 -0 0 1 -2 1 -4 0 -1 -5 -1 1 3 -1 -2 -4 3 -5 -2
-2 1 2 -1 4 7 -1 -13 -8 -4 -7 -4 -2 -1 -0 -5 2 2 6 0 -1 -0 2 0 -2 -2 1 -2 -1 -1 -4 -2 8 -10 2 1 2 5 -1 0 -7 1 3
3 -1 5 6 1 6 1 -5 3 -7 -3 -3 -4 -1 1 -4 3 -2 -4 -4 -2 -2 -3 -2 3 -2 -1 -2 2 3 -4 -3 -2 -2 1 -0 -2 3 4 -7 -1 4 3
-5 2 7 2 0 -4 -4 -3 -8 -2 0 -3 -4 -2 -0 -6 4 0 -1 -1 -2 -2 -1 -2 -5 -2 -4 -3 -4 -2 -0 -0 -3 -1 -2 1 -1 -2 -2 -2 2 5 2
5 8 6 -4 -13 -3 -8 -6 3 -5 2 -1 -2 -2 1 -5 -0 -1 -3 1 -2 -2 -2 -2 -3 -1 0 -2 -1 0 -4 0 -1 -2 -3 -0 4 -1 -3 0 -0 3 0
5 -1 1 -9 -12 -4 3 -0 3 2 1 -3 -5 -4 4 -2 -1 -1 -0 1 -0 -1 0 -1 -3 -2 -0 -1 -3 -3 -1 -1 -1 -3 -2 -2 -2 -2 1 -2 -2 2 -3
Height
5797 5795 5792 5788 5785 5782 5780 5778 5776 5772 5769 5766 5764 5763 5761 5760 5757 5754 5753 5750 5748 5748 5748 5744 5745 5744 5744 5744 5744 5744 5744 5745 5745 5746 5747 5747 5748 5748 5749 5750 5751 5752 5754
5790 5787 5784 5781 5778 5777 5773 5771 5768 5764 5762 5758 5756 5752 5750 5749 5747 5744 5744 5741 5739 5737 5737 5736 5736 5734 5735 5734 5733 5734 5734 5734 5735 5736 5737 5737 5739 5741 5741 5742 5743 5744 5746
5783 5780 5776 5774 5771 5769 5765 5764 5761 5757 5754 5750 5747 5745 5742 5739 5736 5734 5732 5730 5726 5725 5725 5725 5725 5723 5722 5720 5720 5720 5721 5721 5721 5722 5725 5727 5728 5729 5731 5733 5734 5736 5738
5776 5773 5770 5767 5763 5760 5758 5756 5752 5748 5744 5741 5738 5734 5730 5729 5724 5722 5719 5718 5715 5707 5710 5710 5707 5706 5706 5705 5705 5704 5703 5703 5705 5706 5708 5711 5715 5717 5719 5721 5724 5726 5728
5770 5767 5763 5759 5755 5752 5749 5746 5742 5738 5734 5730 5725 5721 5719 5715 5712 5707 5703 5701 5700 5695 5690 5688 5688 5686 5686 5687 5687 5688 5684 5683 5685 5687 5689 5694 5696 5700 5705 5708 5710 5713 5716
5765 5761 5759 5755 5750 5744 5738 5733 5728 5724 5719 5716 5711 5707 5704 5704 5699 5694 5690 5687 5682 5679 5675 5669 5667 5666 5665 5665 5664 5665 5668 5664 5662 5664 5668 5673 5674 5679 5684 5690 5695 5699 5703
5761 5756 5750 5744 5738 5734 5728 5723 5718 5713 5708 5704 5700 5697 5692 5688 5686 5680 5676 5670 5664 5658 5654 5649 5647 5644 5642 5642 5641 5638 5640 5641 5645 5643 5643 5648 5652 5656 5661 5669 5676 5681 5686
5752 5746 5741 5736 5730 5725 5719 5713 5707 5702 5698 5692 5687 5683 5680 5677 5670 5664 5658 5652 5645 5637 5630 5623 5618 5615 5614 5613 5612 5608 5608 5609 5614 5620 5621 5621 5624 5631 5636 5641 5651 5661 5667
5745 5738 5733 5727 5721 5715 5708 5702 5696 5691 5685 5681 5674 5668 5663 5658 5650 5643 5636 5628 5621 5614 5603 5594 5588 5582 5580 5580 5576 5572 5572 5575 5582 5585 5589 5594 5597 5599 5608 5616 5622 5633 5644
5735 5728 5722 5715 5709 5702 5696 5690 5684 5678 5671 5665 5659 5651 5642 5635 5627 5623 5613 5604 5594 5582 5569 5561 5555 5550 5544 5539 5536 5534 5533 5537 5542 5548 5550 5556 5565 5571 5574 5583 5592 5602 5616
5724 5717 5711 5705 5698 5691 5684 5677 5671 5664 5658 5650 5642 5633 5625 5616 5606 5595 5591 5575 5565 5550 5538 5528 5523 5517 5513 5510 5509 5505 5502 5505 5507 5508 5511 5517 5527 5537 5545 5549 5558 5569 5583
5714 5708 5701 5695 5687 5680 5673 5665 5658 5649 5641 5633 5625 5616 5604 5591 5576 5562 5553 5545 5534 5525 5513 5505 5500 5494 5492 5490 5488 5487 5486 5486 5485 5484 5485 5489 5495 5501 5509 5518 5524 5536 5547
5703 5696 5689 5682 5675 5667 5660 5651 5643 5634 5625 5617 5606 5593 5580 5565 5550 5534 5522 5516 5508 5504 5495 5488 5484 5480 5477 5475 5473 5472 5471 5470 5469 5468 5468 5469 5473 5476 5481 5487 5496 5502 5515
5690 5684 5677 5669 5662 5654 5647 5638 5628 5618 5608 5596 5585 5569 5556 5540 5525 5511 5499 5489 5488 5484 5479 5477 5473 5468 5465 5463 5461 5459 5458 5457 5455 5454 5454 5454 5456 5456 5461 5465 5472 5479 5485
5678 5671 5663 5655 5647 5641 5632 5622 5613 5601 5590 5576 5563 5549 5532 5515 5503 5492 5482 5474 5468 5469 5469 5467 5463 5458 5455 5452 5449 5446 5444 5443 5442 5439 5438 5439 5441 5442 5445 5448 5453 5459 5465
5666 5659 5651 5642 5633 5624 5616 5607 5598 5587 5574 5560 5545 5528 5512 5496 5487 5477 5470 5464 5459 5455 5454 5454 5451 5447 5443 5439 5437 5433 5430 5428 5427 5426 5425 5426 5427 5428 5430 5434 5437 5440 5446
5653 5646 5637 5629 5620 5611 5601 5592 5582 5569 5557 5542 5524 5506 5491 5480 5470 5463 5459 5454 5450 5447 5443 5442 5440 5434 5429 5424 5422 5419 5417 5415 5413 5412 5411 5412 5414 5415 5416 5419 5422 5425 5429
5640 5632 5624 5615 5606 5597 5587 5576 5564 5553 5539 5523 5506 5491 5478 5468 5461 5455 5449 5445 5441 5437 5432 5428 5427 5423 5416 5411 5408 5406 5403 5401 5400 5400 5399 5401 5402 5402 5403 5406 5408 5411 5416
5625 5617 5609 5601 5592 5582 5572 5560 5548 5536 5521 5506 5488 5476 5465 5457 5452 5446 5440 5435 5431 5427 5422 5417 5414 5410 5404 5399 5396 5393 5390 5390 5389 5388 5387 5386 5387 5387 5389 5391 5395 5397 5402
5612 5604 5595 5586 5576 5564 5555 5542 5529 5515 5501 5486 5473 5462 5453 5447 5442 5437 5431 5427 5422 5417 5412 5407 5402 5397 5392 5387 5383 5381 5380 5378 5377 5373 5372 5370 5370 5370 5372 5375 5381 5385 5389
5599 5590 5580 5569 5560 5546 5535 5526 5514 5499 5485 5472 5460 5452 5444 5438 5433 5428 5422 5418 5411 5406 5401 5395 5390 5385 5381 5376 5372 5370 5368 5365 5362 5359 5358 5355 5356 5354 5354 5359 5366 5369 5375
5585 5575 5564 5553 5542 5533 5517 5506 5495 5483 5470 5460 5451 5443 5436 5429 5425 5420 5416 5410 5404 5398 5393 5385 5380 5374 5371 5366 5363 5360 5356 5352 5350 5344 5344 5341 5342 5342 5342 5346 5349 5359 5365
5569 5558 5547 5536 5526 5517 5502 5491 5481 5471 5456 5449 5441 5435 5428 5422 5417 5410 5405 5398 5393 5387 5381 5376 5371 5365 5362 5359 5355 5350 5344 5340 5337 5332 5328 5327 5326 5330 5331 5333 5341 5351 5357
5551 5540 5529 5519 5510 5501 5489 5477 5468 5456 5446 5439 5432 5426 5420 5414 5410 5404 5398 5392 5386 5380 5373 5368 5362 5358 5354 5351 5346 5340 5335 5331 5325 5320 5316 5318 5315 5318 5322 5326 5334 5342 5347
5535 5525 5514 5503 5494 5487 5475 5461 5454 5445 5436 5430 5424 5418 5412 5406 5401 5396 5391 5385 5378 5372 5366 5360 5356 5352 5349 5344 5339 5333 5327 5322 5316 5311 5308 5310 5309 5310 5313 5319 5326 5332 5339
5519 5508 5501 5489 5481 5473 5461 5449 5442 5435 5428 5423 5416 5410 5406 5400 5394 5389 5383 5377 5372 5366 5361 5356 5351 5348 5344 5339 5333 5327 5320 5315 5310 5305 5302 5303 5303 5304 5308 5313 5318 5325 5333